Wind_Speed
39 39 40 40 40 40 40 40 40 40 41 41 41 41 41 40 39 38 38 38 38 38 38 37 37 37 37 37 37 36 36 36 37 37 37 36 36 36 37 37 37 36 36
39 40 40 41 41 41 41 41 41 40 40 41 41 42 41 41 40 40 40 39 39 38 38 38 38 38 38 38 37 37 37 37 37 38 38 37 37 38 38 39 39 39 39
40 40 40 41 41 42 42 42 42 41 41 41 42 42 42 41 41 40 40 40 40 39 39 39 39 39 39 38 38 38 37 38 39 38 38 38 38 38 38 39 39 39 40
41 41 41 41 41 41 42 42 42 42 41 41 42 43 42 41 40 41 41 41 41 41 40 40 40 40 40 40 39 39 39 39 39 39 39 39 39 39 39 39 40 40 40
41 40 40 41 41 41 42 42 42 43 43 43 43 42 42 42 41 42 42 42 41 41 40 41 41 41 41 41 41 40 40 39 39 40 40 39 39 40 40 40 40 42 41
41 40 40 41 41 41 41 42 42 43 44 43 43 42 42 42 42 43 43 43 42 41 41 42 42 42 42 42 41 41 40 40 40 40 40 40 40 40 40 40 41 41 41
42 42 41 41 41 41 41 42 41 42 43 43 43 43 43 43 44 44 43 43 43 42 43 43 43 43 43 42 42 41 42 42 40 40 40 39 39 39 40 40 40 41 42
43 43 42 42 41 41 41 42 42 42 42 43 43 43 44 45 45 45 44 44 44 43 43 43 43 43 42 43 43 42 42 42 41 40 39 39 39 39 40 40 41 42 42
41 40 40 41 40 40 41 42 42 42 42 43 44 43 44 44 45 45 45 44 44 44 44 44 43 43 42 42 42 42 42 42 41 41 40 40 40 40 40 40 41 42 42
39 39 40 40 40 40 40 41 41 42 42 42 43 43 43 43 44 44 45 45 44 44 44 44 43 43 44 43 43 42 42 42 41 41 41 41 41 41 41 42 42 43 43
40 40 40 40 40 40 40 40 40 40 41 41 41 42 42 43 43 43 44 44 44 44 44 44 43 43 43 43 42 42 42 41 41 41 40 40 41 41 42 42 43 43 44
40 40 39 39 40 40 40 40 40 40 41 41 41 41 41 42 42 42 43 43 43 43 43 43 43 43 43 43 42 41 41 41 41 41 41 41 41 41 41 42 42 43 43
39 39 39 38 38 39 40 40 40 40 40 41 41 41 41 41 41 41 41 41 42 42 42 43 43 43 43 43 42 42 41 41 41 41 41 42 41 40 40 40 41 42 42
37 37 37 38 37 37 39 39 39 39 39 40 40 40 40 41 41 41 41 41 42 42 42 42 42 42 42 42 42 42 42 41 41 40 40 40 40 41 41 41 41 41 42
35 35 35 36 36 35 36 37 38 38 39 38 39 39 40 41 41 41 42 42 42 42 42 42 42 42 42 42 42 42 42 41 41 41 40 40 40 41 42 42 42 42 42
32 32 32 33 34 34 33 34 36 37 38 37 38 39 39 39 40 39 40 41 42 42 41 41 42 42 42 42 42 42 42 41 41 41 41 40 40 41 41 42 42 42 42
29 29 30 30 30 31 31 31 32 34 35 36 37 38 38 39 39 38 38 39 40 40 41 41 41 42 42 43 42 42 42 42 41 41 41 41 40 40 40 41 41 41 42
28 27 28 29 28 29 30 30 30 31 32 33 34 36 37 38 38 38 38 38 38 39 40 40 40 40 41 41 41 41 40 40 40 40 40 40 40 40 41 41 41 41 41
28 28 28 28 28 28 28 29 29 30 31 31 32 34 34 35 36 37 37 37 37 37 38 38 38 38 38 39 39 40 39 40 40 40 40 41 41 41 41 41 41 41 41
28 28 28 28 28 28 28 29 30 30 30 31 31 32 33 33 35 36 36 36 37 37 37 38 37 37 37 38 38 39 40 40 40 40 40 40 40 40 40 41 41 41 41
29 29 28 28 29 29 28 29 29 30 30 30 30 31 31 32 32 33 34 35 36 36 36 36 37 36 36 37 37 38 39 40 40 40 40 40 40 40 40 40 41 40 41
29 29 28 28 28 28 28 28 28 28 29 29 29 30 30 30 31 32 33 34 35 35 34 34 35 35 35 36 36 37 37 38 39 39 40 40 40 40 40 41 41 41 41
28 28 28 27 27 27 27 27 27 27 28 28 28 28 29 29 30 30 31 31 32 33 33 33 33 33 34 34 35 36 36 36 37 38 39 39 40 40 40 40 40 41 42
26 26 26 26 27 27 27 26 26 27 28 28 28 28 28 29 29 30 30 30 31 32 32 32 32 33 33 33 34 35 35 35 35 36 38 38 38 39 39 39 40 41 42
25 25 25 25 25 26 27 27 26 27 27 28 28 28 28 28 29 29 29 29 29 30 31 32 32 32 32 32 33 33 33 34 34 35 36 37 37 37 37 38 39 39 40
24 24 24 24 24 24 25 25 26 26 27 27 27 27 27 27 28 29 29 29 29 29 30 31 32 33 33 33 33 33 33 34 34 35 36 36 36 37 37 37 37 37 37
Wind_Direction
261 260 258 259 259 257 257 256 256 256 254 252 251 250 252 253 254 255 255 255 255 255 255 256 256 257 258 259 259 257 258 258 259 261 262 262 261 261 260 260 261 261 260
261 260 259 258 258 258 257 257 256 255 253 252 251 250 251 253 253 254 255 254 254 255 255 255 256 257 258 259 259 260 260 260 261 262 262 262 262 262 262 261 260 260 259
263 261 259 258 258 258 256 256 255 254 254 252 251 250 250 251 252 252 254 254 254 255 255 256 256 256 257 258 259 260 261 262 262 262 263 263 263 263 261 260 260 259 259
262 261 259 258 259 258 257 256 255 254 253 252 251 250 249 250 250 251 253 254 254 255 254 255 256 257 257 257 258 259 261 262 262 263 263 264 263 262 260 259 259 259 260
262 260 259 259 260 259 258 257 255 253 253 253 252 251 250 250 250 251 252 254 254 254 254 254 255 256 257 258 258 259 261 261 262 263 264 264 263 262 260 259 259 260 260
261 260 260 260 260 260 259 257 255 254 254 253 252 250 250 250 250 251 252 253 254 254 254 255 255 256 257 257 259 260 260 261 262 263 263 263 263 262 262 261 260 260 259
263 262 261 261 260 259 258 257 257 255 254 253 251 250 250 250 250 251 252 253 254 254 255 255 255 256 256 257 258 259 260 261 261 262 262 263 263 263 263 263 262 259 259
265 264 262 262 261 259 258 258 257 256 254 252 251 250 251 251 251 251 253 254 254 255 255 255 254 255 256 258 259 260 259 259 260 260 261 262 263 263 263 264 264 262 261
265 264 262 262 262 260 258 257 256 255 254 252 251 250 250 251 251 252 252 253 253 254 254 255 255 255 256 257 258 259 259 260 260 261 261 262 263 264 264 264 264 264 262
266 265 264 263 262 260 258 257 256 254 252 251 250 250 250 250 250 251 253 253 254 254 254 254 255 256 257 257 258 258 259 260 261 262 262 262 264 264 264 264 265 265 264
266 265 264 262 261 259 257 255 254 253 251 250 249 249 249 249 250 251 252 253 253 253 253 254 254 255 256 257 258 259 259 260 261 262 262 263 264 264 265 265 265 266 266
267 267 265 263 261 259 256 254 253 252 250 250 249 248 249 249 249 251 252 252 252 253 253 253 254 254 256 257 257 258 259 260 260 261 262 263 264 265 265 265 266 267 266
269 267 264 263 261 259 256 254 253 251 250 249 249 249 249 249 250 251 251 251 252 252 251 252 253 254 256 256 256 257 258 259 259 260 262 263 264 265 265 265 267 268 268
270 267 263 262 262 259 257 255 253 251 250 249 250 250 250 250 251 251 251 252 252 252 251 251 253 254 256 256 256 257 257 258 260 261 262 263 264 264 264 265 268 269 270
270 268 265 261 260 259 258 255 253 251 250 249 249 250 250 250 250 251 251 252 252 252 252 252 253 255 256 256 256 256 257 258 259 261 261 263 264 264 266 267 269 270 271
270 268 267 264 260 259 258 256 254 252 250 249 249 249 250 251 251 251 251 251 251 251 252 253 254 255 257 257 256 256 257 258 259 260 261 262 264 265 267 268 269 270 271
268 269 267 264 261 259 258 257 255 252 250 248 248 248 249 250 251 252 252 252 251 251 252 254 255 256 257 257 257 257 257 258 259 260 261 262 263 265 268 269 270 271 272
268 267 266 265 263 259 256 255 254 252 250 248 248 248 247 248 249 251 251 251 252 251 252 254 255 256 257 257 257 258 258 258 259 260 261 263 265 267 269 269 270 271 272
267 266 266 264 262 259 257 254 254 251 249 248 248 247 246 247 249 250 250 250 251 252 253 254 255 256 256 256 256 256 257 258 259 260 262 264 266 267 269 269 270 271 272
268 266 266 263 261 259 257 255 255 253 249 248 248 247 246 247 248 249 249 250 252 254 254 254 255 255 255 257 258 258 258 259 260 261 263 264 265 266 267 269 270 271 272
271 268 266 264 261 260 259 257 255 253 249 249 249 248 247 246 247 248 250 251 252 253 254 254 254 255 256 258 259 260 260 261 261 261 263 264 264 266 267 269 270 271 272
273 270 267 264 261 260 258 257 255 252 251 250 250 249 248 247 248 249 250 251 252 252 253 253 255 257 258 259 261 262 263 263 263 263 263 264 266 267 269 270 271 272 273
275 271 267 262 260 259 258 257 254 252 251 251 251 250 249 249 250 251 251 251 251 252 253 253 255 257 260 261 262 263 264 265 265 265 265 266 267 270 271 272 272 274 275
276 272 267 263 260 258 258 256 254 253 253 252 251 251 250 250 251 252 252 252 252 252 253 255 257 259 260 262 264 265 265 265 266 266 267 268 270 271 272 272 273 274 275
275 272 269 264 261 259 258 257 255 254 253 252 252 251 252 252 252 252 252 253 253 253 254 256 258 260 261 262 263 264 265 266 267 268 269 270 270 271 272 272 273 274 274
274 271 268 266 263 261 258 258 257 255 253 253 252 252 253 253 253 253 253 253 254 255 256 258 260 262 263 264 264 266 267 268 269 269 270 270 270 270 271 271 273 274 274
Height
5708 5709 5710 5711 5713 5714 5716 5717 5719 5720 5722 5724 5727 5730 5733 5736 5739 5741 5743 5745 5747 5749 5751 5753 5755 5757 5759 5761 5763 5765 5767 5769 5770 5772 5774 5775 5776 5778 5779 5781 5782 5784 5785
5698 5699 5700 5701 5703 5704 5706 5707 5708 5709 5711 5714 5717 5720 5723 5726 5729 5731 5733 5736 5738 5740 5742 5744 5746 5748 5750 5752 5754 5756 5758 5760 5761 5763 5764 5766 5768 5769 5770 5772 5773 5775 5776
5688 5689 5690 5691 5692 5693 5695 5696 5697 5699 5700 5703 5706 5709 5713 5716 5719 5721 5724 5726 5728 5730 5732 5734 5736 5739 5741 5743 5745 5747 5749 5750 5752 5753 5755 5756 5758 5760 5761 5762 5764 5765 5767
5677 5678 5679 5681 5682 5683 5684 5685 5686 5688 5690 5693 5696 5699 5703 5706 5709 5711 5713 5716 5718 5720 5722 5725 5727 5729 5731 5734 5736 5738 5739 5741 5742 5743 5745 5747 5749 5750 5752 5753 5754 5756 5757
5666 5667 5668 5670 5671 5672 5673 5674 5675 5677 5680 5682 5685 5688 5692 5695 5698 5700 5703 5706 5708 5710 5712 5715 5717 5719 5722 5724 5726 5728 5729 5731 5733 5734 5735 5737 5738 5739 5741 5743 5745 5746 5747
5655 5656 5657 5658 5660 5661 5662 5664 5665 5667 5669 5671 5674 5678 5681 5685 5687 5690 5693 5695 5698 5700 5702 5704 5707 5709 5711 5714 5716 5718 5719 5721 5722 5724 5725 5727 5728 5729 5731 5732 5734 5736 5737
5643 5644 5646 5647 5649 5650 5652 5653 5655 5656 5658 5661 5663 5667 5670 5674 5676 5679 5682 5684 5687 5689 5692 5694 5696 5699 5701 5703 5705 5707 5709 5711 5712 5714 5715 5716 5718 5719 5720 5722 5723 5725 5726
5631 5632 5634 5636 5637 5639 5641 5642 5644 5646 5648 5650 5653 5656 5659 5662 5665 5668 5671 5673 5676 5679 5681 5683 5685 5688 5690 5692 5694 5697 5699 5700 5702 5704 5705 5706 5707 5708 5710 5711 5712 5714 5716
5619 5621 5622 5624 5625 5627 5629 5631 5633 5635 5637 5639 5642 5645 5648 5650 5654 5656 5659 5662 5665 5667 5670 5672 5674 5677 5679 5682 5684 5686 5688 5690 5691 5693 5694 5696 5697 5698 5699 5700 5701 5703 5705
5608 5609 5610 5612 5614 5615 5617 5619 5621 5623 5626 5628 5631 5634 5636 5639 5642 5645 5648 5650 5653 5656 5658 5661 5663 5666 5668 5671 5673 5676 5677 5679 5681 5682 5683 5685 5686 5687 5688 5689 5690 5691 5693
5597 5598 5599 5600 5602 5604 5605 5607 5609 5612 5614 5617 5620 5622 5625 5628 5631 5634 5636 5639 5642 5645 5647 5650 5652 5655 5657 5660 5662 5665 5667 5668 5670 5671 5673 5674 5675 5676 5677 5678 5679 5680 5681
5585 5586 5588 5589 5590 5592 5594 5596 5598 5600 5603 5605 5608 5611 5614 5617 5620 5623 5625 5628 5630 5633 5636 5638 5641 5644 5646 5649 5651 5654 5655 5657 5659 5660 5662 5663 5664 5665 5666 5667 5668 5668 5669
5574 5575 5576 5577 5579 5581 5583 5585 5587 5589 5592 5594 5597 5600 5603 5606 5609 5612 5614 5617 5619 5622 5625 5627 5630 5633 5635 5638 5640 5642 5644 5646 5648 5649 5651 5652 5653 5654 5655 5655 5656 5657 5657
5563 5563 5564 5566 5568 5569 5571 5574 5576 5579 5581 5584 5587 5590 5593 5595 5598 5601 5604 5606 5609 5611 5614 5616 5619 5622 5624 5626 5629 5631 5633 5635 5637 5638 5639 5640 5641 5643 5643 5644 5645 5645 5645
5553 5553 5554 5555 5557 5558 5560 5562 5565 5567 5570 5573 5576 5578 5581 5584 5587 5590 5593 5595 5598 5601 5603 5606 5608 5611 5613 5615 5617 5620 5622 5624 5626 5627 5628 5629 5630 5631 5632 5633 5633 5633 5633
5543 5543 5544 5545 5546 5548 5550 5552 5554 5556 5559 5562 5565 5567 5570 5573 5576 5579 5582 5584 5587 5590 5592 5595 5597 5599 5601 5604 5606 5608 5610 5612 5614 5616 5617 5618 5619 5619 5620 5620 5621 5621 5621
5534 5535 5535 5536 5537 5538 5540 5542 5544 5546 5548 5551 5554 5557 5559 5562 5565 5568 5571 5573 5576 5579 5581 5584 5586 5588 5590 5592 5594 5596 5599 5601 5603 5604 5605 5606 5607 5608 5608 5608 5609 5609 5608
5526 5526 5527 5527 5528 5529 5531 5533 5534 5536 5538 5541 5543 5546 5549 5552 5555 5557 5560 5563 5565 5568 5571 5573 5575 5577 5579 5580 5583 5585 5587 5589 5591 5592 5593 5594 5595 5595 5596 5596 5597 5597 5597
5518 5518 5518 5519 5520 5521 5522 5524 5526 5527 5529 5531 5533 5536 5538 5541 5544 5547 5550 5552 5555 5557 5560 5562 5564 5566 5568 5569 5571 5573 5575 5577 5579 5580 5581 5582 5583 5584 5584 5584 5585 5585 5585
5509 5510 5510 5510 5511 5512 5513 5515 5517 5518 5520 5522 5524 5526 5529 5531 5534 5537 5539 5541 5544 5547 5549 5551 5553 5555 5557 5559 5560 5562 5564 5566 5568 5569 5570 5570 5571 5571 5571 5572 5572 5573 5573
5501 5501 5501 5502 5502 5504 5505 5506 5507 5509 5511 5513 5515 5517 5519 5521 5524 5527 5529 5531 5534 5536 5539 5541 5543 5544 5546 5548 5549 5550 5552 5553 5555 5557 5558 5558 5559 5559 5560 5560 5560 5561 5561
5493 5493 5493 5493 5494 5495 5496 5497 5499 5501 5503 5505 5507 5508 5510 5512 5515 5517 5519 5521 5524 5526 5528 5530 5532 5534 5535 5537 5538 5539 5540 5541 5543 5544 5545 5546 5547 5547 5547 5547 5548 5548 5548
5485 5484 5484 5485 5486 5487 5488 5489 5491 5492 5494 5496 5498 5500 5502 5504 5506 5508 5510 5512 5514 5516 5518 5520 5522 5524 5525 5526 5527 5528 5529 5530 5531 5532 5533 5534 5535 5535 5535 5535 5535 5535 5535
5477 5476 5476 5477 5478 5479 5480 5481 5483 5484 5486 5488 5490 5492 5493 5495 5497 5499 5501 5502 5504 5506 5508 5510 5512 5513 5515 5515 5516 5517 5518 5519 5519 5520 5521 5522 5522 5523 5523 5523 5523 5523 5522
5469 5469 5469 5469 5470 5471 5472 5473 5475 5476 5478 5480 5481 5483 5485 5487 5489 5490 5492 5493 5495 5496 5499 5500 5502 5503 5505 5505 5506 5506 5507 5508 5509 5509 5510 5510 5511 5511 5511 5511 5511 5510 5510
5461 5461 5461 5462 5462 5463 5464 5466 5467 5469 5470 5472 5473 5475 5476 5478 5480 5482 5483 5484 5486 5488 5489 5490 5492 5493 5494 5495 5495 5496 5497 5497 5497 5498 5498 5499 5499 5499 5500 5499 5499 5499 5498